When you browse on this site, cookies collect data to enhance your experience and personalize the content and advertising you see.
Visit our Privacy Policy to learn more. By continuing to use the site, you agree to this use of cookies and data.
  • In Hungary
  • List of Countries
  • For 7 days
  • Water Temperature
  • Satellite Maps
  • Weather Map
  • News
  • Weather Widgets
  • user-avatar
    Login

    Hourly Weather Sukromlya

    Today, 27 May, Monday

    Time Temperature Precipitation Wind Pressure Humidity
    00:00 +9°C° 0 mm 3 mps 734 mmHg 85%
    01:00 +9°C° 0 mm 3 mps 734 mmHg 86%
    02:00 +9°C° 0 mm 3 mps 734 mmHg 88%
    03:00 +9°C° 0 mm 3 mps 734 mmHg 87%
    04:00 +8°C° 0 mm 4 mps 734 mmHg 86%
    05:00 +10°C° 0 mm 4 mps 734 mmHg 85%
    06:00 +11°C° 0.1 mm 4 mps 734 mmHg 82%
    07:00 +11°C° 0.1 mm 4 mps 734 mmHg 80%
    08:00 +12°C° 0.1 mm 5 mps 735 mmHg 78%
    09:00 +13°C° 0.2 mm 5 mps 735 mmHg 76%
    10:00 +14°C° 0.2 mm 5 mps 735 mmHg 74%
    11:00 +14°C° 0.2 mm 5 mps 735 mmHg 72%
    12:00 +15°C° 0.1 mm 5 mps 735 mmHg 67%
    13:00 +16°C° 0.1 mm 5 mps 736 mmHg 62%
    14:00 +19°C° 0.1 mm 5 mps 736 mmHg 57%
    15:00 +19°C° 0 mm 4 mps 736 mmHg 59%
    16:00 +18°C° 0 mm 4 mps 736 mmHg 61%
    17:00 +18°C° 0 mm 4 mps 737 mmHg 63%
    18:00 +17°C° 0 mm 3 mps 737 mmHg 70%
    19:00 +16°C° 0 mm 3 mps 737 mmHg 77%
    20:00 +15°C° 0 mm 2 mps 737 mmHg 84%
    21:00 +14°C° 0.1 mm 3 mps 737 mmHg 88%
    22:00 +14°C° 0.1 mm 3 mps 737 mmHg 91%
    23:00 +14°C° 0.1 mm 3 mps 737 mmHg 95%

    Tomorrow, 28 May, Tuesday

    Time Temperature Precipitation Wind Pressure Humidity
    00:00 +13°C° 0 mm 3 mps 737 mmHg 96%
    01:00 +13°C° 0 mm 3 mps 738 mmHg 96%
    02:00 +13°C° 0 mm 3 mps 738 mmHg 97%
    03:00 +14°C° 0 mm 2 mps 738 mmHg 96%
    04:00 +14°C° 0 mm 2 mps 739 mmHg 95%
    05:00 +14°C° 0 mm 2 mps 739 mmHg 94%
    06:00 +16°C° 0 mm 2 mps 739 mmHg 87%
    07:00 +18°C° 0 mm 2 mps 740 mmHg 80%
    08:00 +19°C° 0 mm 2 mps 740 mmHg 72%
    09:00 +21°C° 0 mm 2 mps 740 mmHg 67%
    10:00 +22°C° 0 mm 3 mps 740 mmHg 61%
    11:00 +25°C° 0 mm 3 mps 741 mmHg 56%
    12:00 +25°C° 0 mm 3 mps 740 mmHg 54%
    13:00 +26°C° 0 mm 3 mps 740 mmHg 51%
    14:00 +27°C° 0 mm 4 mps 740 mmHg 49%
    15:00 +26°C° 0 mm 4 mps 740 mmHg 53%
    16:00 +26°C° 0 mm 4 mps 740 mmHg 57%
    17:00 +26°C° 0 mm 4 mps 740 mmHg 61%
    18:00 +24°C° 0.1 mm 3 mps 739 mmHg 69%
    19:00 +21°C° 0.1 mm 3 mps 739 mmHg 77%
    20:00 +20°C° 0.1 mm 3 mps 739 mmHg 85%
    21:00 +19°C° 0 mm 3 mps 740 mmHg 84%
    22:00 +19°C° 0 mm 3 mps 740 mmHg 83%
    23:00 +19°C° 0 mm 4 mps 740 mmHg 82%

    Day after tomorrow, 29 May, Wednesday

    Time Temperature Precipitation Wind Pressure Humidity
    00:00 +18°C° 0 mm 4 mps 740 mmHg 82%
    01:00 +18°C° 0 mm 4 mps 740 mmHg 81%
    02:00 +18°C° 0 mm 4 mps 740 mmHg 81%
    03:00 +18°C° 0 mm 4 mps 740 mmHg 82%
    04:00 +18°C° 0 mm 4 mps 740 mmHg 83%
    05:00 +19°C° 0 mm 4 mps 740 mmHg 83%
    06:00 +20°C° 0 mm 4 mps 741 mmHg 77%
    07:00 +22°C° 0 mm 5 mps 741 mmHg 71%
    08:00 +23°C° 0 mm 5 mps 741 mmHg 65%
    09:00 +24°C° 0 mm 6 mps 741 mmHg 60%
    10:00 +26°C° 0 mm 6 mps 741 mmHg 55%
    11:00 +27°C° 0 mm 6 mps 741 mmHg 50%
    12:00 +28°C° 0 mm 6 mps 741 mmHg 48%
    13:00 +28°C° 0 mm 6 mps 741 mmHg 45%
    14:00 +28°C° 0 mm 6 mps 741 mmHg 43%
    15:00 +28°C° 0 mm 6 mps 740 mmHg 45%
    16:00 +27°C° 0 mm 5 mps 740 mmHg 46%
    17:00 +27°C° 0 mm 4 mps 740 mmHg 48%
    18:00 +25°C° 0 mm 4 mps 741 mmHg 55%
    19:00 +22°C° 0 mm 3 mps 741 mmHg 62%
    20:00 +20°C° 0 mm 3 mps 741 mmHg 68%
    21:00 +20°C° 0 mm 3 mps 741 mmHg 72%
    22:00 +20°C° 0 mm 3 mps 742 mmHg 76%
    23:00 +19°C° 0 mm 3 mps 742 mmHg 80%

    30 May, Thursday

    Time Temperature Precipitation Wind Pressure Humidity
    00:00 +19°C° 0 mm 3 mps 742 mmHg 83%
    01:00 +18°C° 0 mm 3 mps 742 mmHg 86%
    02:00 +18°C° 0 mm 2 mps 742 mmHg 90%
    03:00 +18°C° 0 mm 2 mps 743 mmHg 90%
    04:00 +18°C° 0 mm 2 mps 743 mmHg 90%
    05:00 +18°C° 0 mm 2 mps 743 mmHg 91%
    06:00 +19°C° 0.4 mm 3 mps 743 mmHg 86%
    07:00 +20°C° 0.4 mm 3 mps 743 mmHg 81%
    08:00 +22°C° 0.4 mm 3 mps 743 mmHg 77%
    09:00 +22°C° 0.6 mm 4 mps 743 mmHg 74%
    10:00 +23°C° 0.6 mm 4 mps 743 mmHg 71%
    11:00 +25°C° 0.6 mm 4 mps 743 mmHg 68%
    12:00 +26°C° 0.2 mm 4 mps 743 mmHg 62%
    13:00 +27°C° 0.2 mm 3 mps 743 mmHg 57%
    14:00 +27°C° 0.2 mm 3 mps 743 mmHg 51%
    15:00 +27°C° 0.8 mm 2 mps 742 mmHg 60%
    16:00 +26°C° 0.8 mm 2 mps 742 mmHg 68%
    17:00 +25°C° 0.8 mm 1 mps 742 mmHg 76%
    18:00 +23°C° 0.7 mm 1 mps 742 mmHg 80%
    19:00 +22°C° 0.7 mm 1 mps 742 mmHg 84%
    20:00 +18°C° 0.7 mm 0 mps 742 mmHg 88%
    21:00 +20°C° 0 mm 1 mps 742 mmHg 89%
    22:00 +19°C° 0 mm 1 mps 742 mmHg 90%
    23:00 +19°C° 0 mm 1 mps 741 mmHg 92%

    31 May, Friday

    Time Temperature Precipitation Wind Pressure Humidity
    00:00 +18°C° 0.2 mm 1 mps 741 mmHg 94%
    01:00 +18°C° 0.2 mm 1 mps 742 mmHg 96%
    02:00 +16°C° 0.2 mm 2 mps 742 mmHg 98%
    03:00 +16°C° 0 mm 2 mps 742 mmHg 97%
    04:00 +16°C° 0 mm 2 mps 742 mmHg 96%
    05:00 +16°C° 0 mm 2 mps 742 mmHg 96%
    06:00 +16°C° 0 mm 2 mps 742 mmHg 94%
    07:00 +16°C° 0 mm 1 mps 742 mmHg 93%
    08:00 +16°C° 0 mm 1 mps 743 mmHg 92%
    09:00 +18°C° 0 mm 1 mps 743 mmHg 86%
    10:00 +17°C° 0 mm 2 mps 743 mmHg 81%
    11:00 +18°C° 0 mm 2 mps 743 mmHg 75%
    12:00 +19°C° 0 mm 2 mps 743 mmHg 70%
    13:00 +22°C° 0 mm 1 mps 743 mmHg 64%
    14:00 +23°C° 0 mm 1 mps 743 mmHg 59%
    15:00 +23°C° 0 mm 1 mps 743 mmHg 57%
    16:00 +23°C° 0 mm 1 mps 743 mmHg 54%
    17:00 +24°C° 0 mm 1 mps 743 mmHg 52%
    18:00 +21°C° 0 mm 1 mps 743 mmHg 58%
    19:00 +19°C° 0 mm 1 mps 743 mmHg 65%
    20:00 +16°C° 0 mm 1 mps 743 mmHg 72%
    21:00 +15°C° 0 mm 1 mps 743 mmHg 73%
    22:00 +14°C° 0 mm 1 mps 744 mmHg 74%
    23:00 +13°C° 0 mm 1 mps 744 mmHg 75%

    1 June, Saturday

    Time Temperature Precipitation Wind Pressure Humidity
    00:00 +13°C° 0 mm 1 mps 744 mmHg 75%
    01:00 +13°C° 0 mm 2 mps 744 mmHg 74%
    02:00 +12°C° 0 mm 2 mps 744 mmHg 74%
    03:00 +13°C° 0 mm 2 mps 744 mmHg 73%
    04:00 +13°C° 0 mm 2 mps 744 mmHg 73%
    05:00 +13°C° 0 mm 2 mps 743 mmHg 72%
    06:00 +13°C° 0.3 mm 2 mps 743 mmHg 77%
    07:00 +13°C° 0.3 mm 2 mps 743 mmHg 82%
    08:00 +13°C° 0.3 mm 2 mps 743 mmHg 86%
    09:00 +13°C° 0.3 mm 3 mps 743 mmHg 85%
    10:00 +14°C° 0.3 mm 3 mps 743 mmHg 83%
    11:00 +16°C° 0.3 mm 3 mps 743 mmHg 82%
    12:00 +16°C° 0 mm 3 mps 743 mmHg 79%
    13:00 +17°C° 0 mm 3 mps 742 mmHg 77%
    14:00 +17°C° 0 mm 3 mps 742 mmHg 75%
    15:00 +16°C° 0.9 mm 3 mps 742 mmHg 81%
    16:00 +14°C° 0.9 mm 3 mps 742 mmHg 87%
    17:00 +14°C° 0.9 mm 2 mps 742 mmHg 93%
    18:00 +14°C° 0.2 mm 2 mps 742 mmHg 94%
    19:00 +14°C° 0.2 mm 2 mps 742 mmHg 94%
    20:00 +12°C° 0.2 mm 3 mps 742 mmHg 95%
    21:00 +12°C° 0.2 mm 3 mps 742 mmHg 95%
    22:00 +12°C° 0.2 mm 3 mps 742 mmHg 95%
    23:00 +12°C° 0.2 mm 3 mps 743 mmHg 95%
    Show more